RH
13 13 13 14 14 14 13 12 11 11 11 9 7 6 7 12 14 8 5 6 7 12 21 31 35 36 43 50 49 48 44 38 39 43 42 39 37 35 35 38 37 35 39 36 31 30 26 23 25 22 25 36 50 72 85 81 77 64 38 34 50 47 30 24 21 16 24 33 34 33 34 34 36 38 37 39 46 48 48 52 53 56 58 50 53 62 45
13 13 12 12 11 11 9 8 8 8 7 6 6 5 5 9 10 8 7 5 9 20 24 26 33 37 40 44 42 42 46 44 39 41 43 39 34 31 33 40 40 40 45 39 31 31 27 24 28 25 24 39 55 67 78 74 63 59 55 56 61 47 22 17 20 17 22 27 26 29 32 30 31 40 46 48 54 61 62 61 62 62 53 45 56 66 45
9 9 8 8 9 8 8 8 7 7 7 6 7 5 5 8 8 7 7 4 8 25 32 30 33 35 33 35 36 36 40 41 38 42 45 43 37 33 35 40 41 42 45 40 34 33 28 24 29 29 26 41 58 63 67 70 69 74 76 70 67 49 21 14 21 21 23 25 22 23 25 21 22 38 56 60 61 67 62 53 58 62 51 47 61 65 42
6 7 7 7 8 6 7 8 7 7 8 8 7 6 7 11 13 11 9 6 9 22 30 28 28 31 27 25 27 30 33 35 36 40 43 42 40 40 38 38 39 37 39 38 30 28 31 28 27 30 28 35 52 63 69 70 71 77 74 63 60 49 27 18 20 20 23 24 22 21 22 23 23 36 59 68 66 67 63 58 57 57 60 62 57 47 36
6 6 6 6 6 6 6 6 6 6 6 7 8 5 7 13 18 20 17 14 14 18 25 28 27 27 24 23 28 31 30 31 32 36 40 38 39 41 37 37 37 31 32 32 23 24 32 28 27 38 41 38 41 54 68 69 65 71 69 58 52 40 28 31 34 29 26 23 23 24 24 25 25 32 51 64 68 70 71 71 61 56 72 71 42 29 35
5 5 5 6 5 6 7 6 6 6 5 6 7 6 11 17 20 21 22 24 23 20 26 36 37 31 28 30 35 32 28 29 30 33 38 36 35 35 31 34 37 34 37 35 24 25 28 26 38 50 49 46 41 44 59 62 57 62 59 49 46 34 30 46 51 40 32 27 26 26 23 23 26 31 41 51 64 74 77 76 64 57 66 58 33 27 33
4 4 4 5 5 4 5 5 5 6 6 6 6 6 11 15 16 17 20 28 32 27 29 38 40 36 32 31 35 31 26 29 35 39 39 32 31 31 27 31 37 39 42 36 25 25 26 28 45 56 53 55 48 40 47 50 47 51 48 49 51 38 35 54 62 52 41 30 25 24 23 24 28 34 40 45 54 64 67 63 51 41 42 36 27 28 28
3 4 4 4 4 4 4 5 5 5 5 5 5 6 8 10 14 16 17 23 29 26 26 31 31 28 25 25 33 35 29 28 36 42 38 28 28 31 29 33 43 47 46 35 25 29 32 31 42 52 54 55 48 38 38 43 48 48 49 59 59 42 42 58 60 51 41 28 21 21 22 24 28 36 44 47 48 48 48 44 35 34 36 29 25 33 32
3 4 4 3 4 4 4 4 4 5 4 4 4 5 6 6 8 10 12 19 25 24 23 27 25 19 19 24 33 37 33 32 36 38 38 37 37 38 37 38 45 51 47 36 31 38 44 45 47 49 48 47 46 42 41 47 51 47 56 72 63 44 42 47 48 43 30 19 17 17 23 37 46 49 48 47 46 42 36 31 27 30 34 33 35 41 34
3 4 3 4 4 3 4 4 4 4 4 4 4 4 4 5 5 6 9 16 24 23 21 23 22 23 31 39 44 44 40 40 39 32 30 37 41 41 44 44 40 38 38 37 41 49 56 62 62 57 53 51 53 56 58 60 57 53 61 68 64 59 47 35 40 41 25 18 18 17 30 51 58 53 46 42 39 32 25 23 21 20 24 33 38 34 26
4 4 4 4 4 3 4 4 4 5 4 3 4 4 4 5 5 6 8 16 25 27 24 20 20 29 43 48 49 49 45 44 42 31 26 36 39 35 43 50 41 32 34 41 45 48 53 63 68 66 63 60 61 64 65 64 63 64 63 57 62 72 55 33 38 40 27 24 24 20 31 44 45 42 38 35 32 26 23 23 21 19 20 24 26 24 24
5 6 5 5 5 4 4 4 4 4 4 4 5 4 4 5 5 4 8 16 24 27 27 28 31 40 46 44 43 45 45 44 41 33 33 40 39 32 39 52 47 36 38 44 45 47 54 61 64 67 68 66 66 65 61 57 59 64 64 60 58 53 38 33 42 42 33 28 29 32 35 36 40 41 34 30 26 21 22 23 21 21 22 21 24 28 28
7 8 7 7 7 6 6 5 5 5 4 4 4 4 4 4 4 4 6 15 25 28 30 34 40 43 41 41 42 40 38 37 33 32 37 41 40 39 42 48 48 42 42 45 45 46 50 49 49 54 58 57 58 60 59 57 55 54 55 58 52 38 30 33 35 34 30 27 32 39 32 28 40 42 31 27 25 21 29 36 29 22 21 24 29 30 29
9 9 9 9 9 8 8 7 7 6 6 5 4 5 5 3 5 4 3 12 28 34 34 33 34 36 35 37 39 35 32 31 29 31 36 35 38 45 43 42 45 46 46 49 47 41 36 32 33 39 43 44 45 51 57 58 54 49 45 43 38 31 29 30 29 29 31 32 36 35 25 26 40 40 28 25 25 24 34 43 37 24 22 29 32 30 31
10 10 10 9 9 9 9 8 8 8 7 6 6 6 6 4 5 4 3 10 22 30 33 30 26 30 35 34 32 30 28 26 26 29 32 31 35 39 38 40 45 47 48 50 45 36 29 26 26 27 30 33 33 35 43 49 52 51 46 39 33 29 26 27 30 30 31 35 39 38 34 34 36 31 23 21 24 23 26 38 41 28 24 32 33 31 33
10 9 9 9 9 9 9 8 9 8 8 8 7 6 7 5 4 5 4 6 15 28 33 29 24 28 34 32 30 31 28 23 23 25 26 32 37 34 32 39 45 45 46 45 37 29 25 24 24 22 22 24 23 24 28 35 43 50 49 43 37 34 31 31 33 31 32 38 41 41 40 34 27 23 19 19 25 22 23 41 46 29 26 35 34 34 38
10 9 9 9 9 9 9 9 9 8 8 8 7 6 7 6 5 7 5 4 19 37 35 24 23 29 31 29 30 31 29 26 25 21 18 24 31 32 33 39 43 44 44 39 31 27 25 23 22 22 21 21 22 25 25 23 28 39 46 44 41 40 36 33 33 31 30 38 41 37 33 26 20 21 21 21 22 21 33 56 50 28 29 38 37 41 46
9 9 9 9 9 9 9 9 9 9 8 8 8 7 8 7 5 7 6 3 19 39 36 25 28 33 31 27 27 26 26 27 28 24 19 19 23 29 37 40 40 44 46 38 29 25 24 23 23 24 25 23 24 28 26 23 26 33 35 33 39 46 41 34 35 33 30 38 44 38 31 25 20 22 24 22 23 29 44 54 42 28 35 41 42 47 48
10 10 9 10 9 9 10 9 9 10 8 8 8 7 8 9 6 7 7 4 14 33 36 28 28 28 24 22 21 21 22 26 27 24 19 19 23 28 35 37 35 39 40 33 26 25 25 24 25 27 28 27 27 27 26 27 31 35 35 34 40 46 41 33 36 35 30 32 38 38 35 27 19 21 23 22 31 44 45 37 31 34 42 43 44 47 46
10 10 9 10 9 8 9 9 9 10 9 8 9 8 8 9 7 7 8 6 10 25 32 26 22 21 19 18 20 23 24 25 25 24 21 22 26 29 32 33 31 31 31 27 26 27 27 25 26 28 28 26 26 28 30 35 38 37 41 48 49 45 36 30 33 35 31 30 37 44 41 25 16 22 24 23 30 38 34 30 36 43 45 45 46 47 48
10 10 9 9 9 8 9 9 9 9 9 8 9 8 8 9 8 7 9 6 8 19 27 24 19 19 19 18 18 21 24 22 23 26 26 25 27 28 28 28 27 29 30 28 27 26 27 28 29 30 28 24 25 30 33 37 41 43 45 50 52 46 34 26 30 34 34 32 34 35 29 18 16 22 24 22 25 29 33 40 45 46 47 48 49 50 53
10 10 9 9 9 9 10 10 9 9 9 9 10 9 8 9 8 8 9 7 7 15 23 22 19 18 19 19 19 20 21 22 22 23 26 30 31 29 28 30 34 35 33 31 30 29 28 29 30 30 29 26 26 32 33 32 40 51 51 44 43 40 30 26 31 33 30 29 28 24 20 18 20 21 22 24 28 34 42 48 48 49 51 50 51 54 57
9 10 9 10 10 10 10 10 10 10 10 9 10 10 9 10 9 8 10 9 8 14 19 20 20 20 19 19 21 21 21 23 24 22 23 29 32 30 31 35 38 39 38 37 37 37 33 30 31 31 30 29 28 33 36 33 37 50 50 38 32 32 29 31 35 32 27 27 24 20 19 20 20 21 24 29 34 40 46 50 52 53 53 52 54 58 59
9 9 9 10 10 10 10 10 10 10 10 10 10 10 10 10 10 9 10 9 10 16 23 23 21 21 21 20 21 23 23 23 25 24 24 26 29 32 37 39 37 42 48 46 43 42 38 35 37 36 33 34 33 31 34 35 34 39 43 38 31 28 28 32 34 31 31 30 22 17 19 21 22 26 30 33 38 43 48 52 54 54 53 55 59 61 59
9 10 10 10 10 10 10 11 10 10 10 10 10 11 11 11 11 10 11 10 10 16 28 31 25 21 22 22 21 23 24 23 24 24 24 26 29 32 38 40 39 43 50 48 45 46 42 38 39 38 35 37 36 30 30 33 32 34 38 37 32 29 30 32 29 26 27 27 20 17 21 24 27 32 34 36 41 46 50 53 55 57 58 60 62 61 59
9 9 9 10 11 11 11 11 10 10 10 10 10 11 11 11 12 11 11 11 10 13 25 34 30 22 22 23 23 23 24 24 24 24 24 27 31 33 37 41 41 43 47 49 51 52 47 39 36 35 35 38 40 39 37 33 30 33 35 31 27 30 32 29 25 24 26 24 19 21 28 29 28 32 35 38 44 50 53 56 59 60 62 63 64 61 56
7 8 9 9 10 11 11 11 11 10 11 11 11 11 10 11 11 11 11 12 12 15 25 32 29 23 22 24 24 24 25 25 25 25 25 27 30 34 40 43 45 50 57 60 57 53 48 43 40 40 42 45 47 50 50 42 35 38 37 29 27 31 31 26 26 32 34 26 21 28 36 34 30 32 36 41 48 53 56 60 62 63 63 65 63 59 54
7 8 9 9 10 11 11 11 11 11 11 11 11 11 11 11 11 11 11 11 12 15 22 27 27 27 27 26 24 25 27 27 27 27 27 27 29 36 43 47 50 58 65 64 56 50 46 45 46 48 49 50 50 50 51 48 45 44 38 30 28 29 26 23 26 32 31 25 24 33 42 41 38 39 41 45 52 58 60 62 64 65 64 64 62 61 59
8 9 10 10 11 11 11 11 11 11 11 11 11 11 11 11 12 11 11 12 12 11 16 24 31 33 31 27 24 25 27 29 29 29 29 30 31 37 45 51 54 59 63 60 53 48 47 50 56 59 57 53 51 48 47 48 49 45 37 31 30 30 30 30 31 31 29 29 33 41 47 47 44 43 46 51 58 61 60 62 67 68 65 62 61 60 60
8 9 10 10 11 11 11 11 11 11 11 11 11 10 11 11 12 12 11 12 13 12 15 24 32 31 27 24 23 25 26 29 31 31 30 32 35 38 45 52 55 57 60 59 54 52 55 60 68 72 66 55 50 49 47 49 49 40 32 32 34 34 35 37 39 40 41 41 42 46 50 48 42 43 52 57 57 57 60 66 71 69 62 60 62 61 59
7 8 9 9 9 10 10 10 10 11 11 11 11 11 11 12 13 13 11 13 15 13 13 22 29 29 27 26 25 24 26 28 31 32 32 34 37 39 43 49 54 56 58 58 56 56 60 65 71 73 68 60 55 51 49 53 52 41 32 34 36 35 37 41 44 48 50 46 44 47 51 49 45 47 52 52 51 57 66 69 69 65 60 61 66 66 63
7 8 9 9 9 10 10 10 11 11 11 12 11 12 12 12 13 14 12 13 15 14 14 21 27 29 29 28 25 24 26 30 32 33 34 36 37 38 41 47 54 56 54 54 56 59 65 70 71 69 67 63 58 51 49 54 54 43 33 34 36 36 37 38 40 42 39 36 41 50 52 48 45 47 49 49 53 61 67 68 68 68 65 66 68 65 63
7 8 9 11 11 11 11 12 12 11 12 12 13 13 14 13 14 14 14 14 16 15 15 19 24 26 25 25 26 25 27 32 35 36 37 37 37 39 43 49 54 55 51 51 56 61 65 66 64 63 62 58 51 48 48 48 44 37 35 38 40 40 39 38 40 42 40 39 47 57 56 50 49 52 54 55 57 62 67 71 73 73 70 69 68 68 69
8 9 10 12 12 12 13 13 12 12 12 13 13 14 14 14 14 15 14 14 16 17 16 19 24 27 25 25 28 28 29 35 39 39 39 38 38 42 47 49 51 51 49 51 58 62 63 63 60 58 56 51 49 51 49 40 34 36 39 40 41 44 46 46 46 48 50 53 55 55 50 46 48 52 54 55 60 67 73 76 77 75 73 72 72 73 76
9 10 11 12 13 13 13 13 13 13 13 13 14 15 15 15 15 15 15 15 15 17 19 22 26 30 30 30 31 29 31 37 40 40 40 40 40 43 45 45 46 47 47 51 56 57 59 65 65 57 52 51 53 54 47 37 34 37 38 38 42 47 51 53 51 51 55 57 53 46 41 44 53 59 61 63 69 74 77 78 77 75 73 72 73 75 76
9 10 11 12 13 13 13 13 13 13 13 13 14 15 16 16 15 15 16 16 15 17 21 25 29 33 35 35 33 32 33 39 42 40 40 44 47 46 42 40 43 47 48 50 52 51 55 64 64 55 49 51 52 47 40 36 38 41 40 41 45 49 53 57 58 57 56 52 46 43 46 54 64 70 70 70 73 75 76 78 79 77 75 74 75 77 79
8 9 11 12 13 13 13 13 13 13 14 14 14 15 17 16 16 16 16 17 17 17 21 27 33 37 39 40 39 36 36 41 44 41 42 48 51 47 41 41 46 49 45 44 49 54 58 62 62 56 51 50 47 44 43 44 44 43 41 41 45 50 55 60 63 64 63 57 51 50 52 54 57 59 62 63 65 67 73 78 79 78 79 77 76 79 84
8 9 10 11 12 13 12 13 13 14 14 13 13 16 17 16 15 16 17 18 20 21 23 29 37 42 45 45 41 37 39 45 45 41 44 52 51 44 41 47 52 49 41 38 45 53 54 55 59 58 54 51 49 47 46 47 45 41 40 42 45 50 54 59 65 71 72 66 59 56 57 56 52 49 51 54 55 58 66 74 76 76 76 75 75 80 85
9 10 10 11 13 12 13 14 14 14 14 14 15 17 17 16 18 20 20 20 23 25 29 34 39 44 47 48 44 41 45 50 47 42 46 53 51 45 44 49 49 44 38 37 44 50 48 46 51 52 48 47 49 45 40 41 42 42 42 44 47 51 55 59 66 72 75 71 63 57 56 57 56 52 49 50 53 58 65 70 73 73 74 75 78 84 87
8 10 11 12 13 13 14 15 14 14 15 16 16 16 16 18 23 26 25 26 29 31 33 37 38 40 44 47 49 49 49 48 49 50 54 57 57 54 50 47 44 42 39 38 44 49 46 43 46 46 41 41 43 40 37 38 41 44 47 49 49 52 56 60 63 69 74 73 67 59 55 56 56 54 51 51 55 60 65 70 72 74 75 78 83 87 88
9 10 11 12 13 14 14 14 14 15 15 15 17 20 24 25 27 27 28 29 32 33 34 36 38 41 44 47 51 53 50 48 54 62 64 62 61 58 51 44 41 40 38 38 44 47 45 44 45 43 37 36 38 38 38 42 45 47 50 52 52 54 58 60 64 69 75 76 74 71 69 68 65 60 54 52 54 60 66 70 72 74 77 82 86 86 88
9 10 11 12 14 14 14 14 15 15 16 18 20 26 31 31 29 28 28 31 33 34 34 34 37 41 45 46 48 51 51 52 60 66 63 57 55 53 47 42 39 37 37 41 46 46 44 45 44 38 32 33 36 37 39 45 48 47 47 50 54 57 59 61 64 68 72 77 79 80 82 84 81 72 61 54 54 59 64 68 72 76 80 83 84 85 90
9 11 12 13 14 13 14 15 14 16 23 27 25 25 28 32 33 32 31 31 33 35 34 33 35 39 43 45 47 50 54 58 62 63 58 52 51 49 44 39 36 36 38 42 45 43 42 42 40 33 29 31 35 38 42 47 48 47 49 53 57 59 60 63 66 69 72 77 82 88 93 97 95 84 69 58 56 59 61 66 73 78 80 81 82 86 94
10 11 11 13 15 14 15 17 15 16 23 30 28 25 26 29 32 32 30 29 32 35 34 33 36 40 44 47 49 53 56 57 55 53 51 49 49 47 43 39 38 39 41 42 42 42 42 40 36 32 31 33 36 40 47 51 50 48 51 55 57 59 62 66 70 73 76 80 87 94 98 100 99 91 77 64 60 61 64 69 74 76 78 81 85 90 98
10 12 12 14 16 14 14 18 20 18 21 29 32 30 29 28 28 28 28 28 30 32 32 32 37 44 48 48 48 50 54 54 51 50 50 49 45 43 42 42 42 42 42 43 42 40 37 33 31 31 35 39 41 43 49 55 54 52 54 58 60 62 66 70 74 78 82 88 95 99 100 101 101 95 83 70 63 64 69 73 75 78 82 86 90 96 101
10 12 12 17 20 18 18 24 28 26 26 31 33 29 26 26 25 24 26 28 28 29 31 34 38 46 52 50 46 47 51 52 49 49 50 47 43 42 43 43 43 42 40 40 39 36 30 28 30 36 43 48 49 49 54 59 59 57 59 63 66 68 72 77 80 83 88 95 100 100 99 101 101 95 84 73 67 67 70 74 76 80 86 93 100 103 99
10 12 13 18 22 23 23 27 28 27 27 30 28 25 23 23 21 21 25 28 28 30 34 37 40 47 53 51 45 46 50 49 45 46 47 45 42 41 40 38 38 40 40 39 38 34 30 31 38 45 51 55 55 57 60 63 62 62 64 67 70 74 79 82 83 86 92 98 100 100 100 101 98 90 81 72 68 68 73 76 80 84 91 99 99 86 66
10 13 15 18 22 25 27 27 27 27 28 27 24 23 23 22 21 21 23 26 28 31 36 40 45 50 52 48 45 47 48 44 40 42 46 46 43 42 42 40 40 39 39 39 36 32 31 38 47 52 54 56 59 62 66 68 66 64 67 70 74 78 84 87 87 87 88 91 95 100 102 97 88 79 74 70 69 70 74 79 84 90 95 93 75 48 36
11 14 17 21 23 25 26 27 27 28 28 26 24 25 25 23 22 21 22 25 31 34 37 42 47 49 47 44 42 42 43 41 40 42 45 45 43 43 46 49 49 46 41 36 33 34 39 47 53 54 54 56 60 65 70 72 69 67 70 75 78 82 87 88 82 75 75 84 96 101 96 86 76 71 69 70 71 73 76 83 89 87 78 64 43 28 35
13 14 17 22 25 26 26 27 29 30 28 25 25 27 27 25 24 24 25 29 34 36 39 43 46 45 44 42 38 35 40 47 49 46 44 43 42 42 45 48 49 44 37 34 37 43 49 53 55 55 56 59 61 64 68 70 70 70 73 77 80 83 85 81 69 61 66 82 93 91 80 71 69 69 70 75 77 71 61 59 61 56 42 29 22 26 43
16 18 20 24 26 27 27 28 30 31 29 25 24 26 27 26 25 26 29 33 37 38 41 44 45 43 42 41 37 35 42 50 51 47 44 43 42 42 43 44 41 36 35 39 46 50 51 52 55 59 60 61 62 65 67 68 70 72 76 81 83 80 72 63 56 55 61 69 74 73 67 65 68 72 75 74 68 51 31 21 21 22 20 18 19 29 46
17 22 25 26 26 26 27 28 27 27 27 25 24 26 27 27 27 29 31 35 38 40 42 44 45 43 41 41 41 42 44 46 47 46 45 44 43 41 41 40 37 36 41 48 51 49 47 49 53 57 59 62 65 69 71 71 72 76 81 85 84 76 62 52 49 51 53 55 58 62 63 64 66 67 62 50 36 24 17 15 15 15 17 20 22 29 42
Wind_Speed
16 15 13 11 9 7 6 6 5 6 6 7 7 8 9 9 6 5 8 10 10 11 9 6 5 5 3 2 4 4 3 2 2 1 1 1 1 1 0 1 1 2 1 2 1 2 2 2 2 1 1 2 2 1 3 4 3 3 2 1 2 1 3 5 7 5 2 5 4 3 3 4 4 4 2 2 1 1 3 5 6 6 8 10 10 12 12
13 12 11 11 10 11 11 11 11 12 13 13 13 13 15 15 13 11 5 3 4 6 4 3 5 4 2 4 4 3 3 3 2 1 2 1 1 2 1 1 1 1 1 2 1 1 1 1 0 0 0 1 1 1 1 1 2 3 1 2 4 2 2 5 7 6 3 0 0 0 2 2 1 4 4 3 2 1 4 3 3 5 9 10 11 12 12
14 14 14 13 12 12 11 11 12 13 12 10 9 10 11 10 12 16 13 6 5 7 6 6 6 4 4 5 3 2 3 3 3 3 2 2 1 2 1 1 1 1 1 2 1 1 2 1 1 1 0 1 1 1 1 1 2 2 0 2 4 3 3 4 5 6 7 7 6 5 5 6 4 3 6 3 2 1 2 4 5 7 11 12 11 12 16
14 13 11 10 8 8 7 7 6 5 4 3 2 3 4 4 4 9 13 15 16 15 12 9 8 6 3 3 1 0 2 2 3 3 1 1 1 1 0 0 2 2 2 3 3 2 3 2 1 1 1 1 1 1 1 1 1 1 1 2 2 2 3 1 2 3 7 9 10 11 10 10 10 6 1 5 4 1 2 4 7 10 13 12 11 14 21
10 9 7 6 5 5 5 5 5 5 5 4 4 4 5 5 3 2 4 11 14 13 11 8 5 3 1 1 2 1 2 2 1 1 1 1 1 1 0 0 1 1 2 3 3 2 3 2 1 1 2 0 0 1 2 1 2 1 2 3 2 3 3 1 2 5 10 12 14 14 12 11 13 11 5 2 4 3 3 6 9 11 11 12 15 20 23
12 11 10 8 7 6 6 5 5 5 5 4 4 5 6 4 4 4 3 3 4 4 5 5 5 4 2 1 1 1 2 1 0 1 1 1 1 1 1 1 1 2 3 3 3 4 3 3 2 1 2 1 1 2 2 2 1 1 0 3 3 3 3 2 1 8 12 14 14 12 12 11 11 11 8 3 4 4 6 9 11 10 10 14 22 27 25
16 15 14 13 11 10 10 8 7 6 6 6 5 6 9 10 9 7 6 6 5 5 5 5 5 5 3 2 1 1 1 1 1 1 1 1 1 1 1 1 2 1 2 3 4 5 4 2 1 0 1 1 2 2 2 2 1 0 1 2 3 2 1 3 1 9 13 12 10 8 10 10 9 8 6 3 3 5 9 12 12 12 15 18 23 27 25
18 18 17 17 15 14 13 12 11 9 9 8 8 9 9 9 8 9 12 12 9 7 5 2 2 3 2 1 1 1 0 1 1 0 1 1 1 1 2 3 2 1 2 4 4 4 5 5 4 1 1 1 2 2 1 1 1 0 0 2 3 2 1 2 0 7 8 5 5 8 9 9 8 5 4 3 5 7 9 11 12 13 16 19 23 24 20
19 19 18 18 17 16 15 14 13 12 11 10 10 11 11 10 12 16 16 9 5 4 3 2 0 1 2 1 1 0 0 1 1 1 1 1 1 2 3 3 1 1 3 3 3 5 6 6 4 1 2 2 2 2 3 3 1 1 2 2 2 3 2 1 1 6 5 3 9 13 8 2 2 5 5 4 6 6 8 10 11 12 17 22 21 17 12
19 18 18 17 17 17 16 15 14 13 12 11 10 12 14 16 16 14 12 6 3 3 1 2 1 1 2 2 1 0 1 1 0 0 1 1 1 1 2 3 3 2 2 2 5 7 6 5 3 1 2 1 3 4 4 4 2 1 1 0 1 2 3 2 3 5 6 7 14 14 4 2 2 3 4 3 5 9 12 13 14 15 16 15 14 12 13
18 17 17 16 16 16 16 16 15 13 12 10 10 11 11 12 12 10 8 6 3 3 1 1 2 2 1 2 2 1 1 1 0 1 1 1 1 2 1 2 4 2 0 3 5 5 2 1 1 3 3 4 5 4 5 6 6 4 1 1 1 1 3 3 2 4 7 11 14 11 5 2 1 4 5 1 5 10 14 16 18 17 14 12 13 15 18
17 16 16 16 15 15 15 15 15 15 14 12 11 9 8 8 8 6 5 5 2 2 1 2 1 1 2 2 2 2 1 1 1 1 1 1 2 3 1 1 3 2 1 3 2 5 7 6 7 7 6 7 7 6 6 7 6 3 1 2 2 2 3 2 1 2 6 9 10 8 5 2 3 6 5 3 6 10 16 19 18 16 16 16 16 17 21
16 16 16 15 15 14 14 15 15 16 17 15 11 9 8 7 5 4 6 7 3 1 2 3 2 3 4 3 2 2 2 1 1 2 2 2 2 3 1 1 2 2 2 1 3 4 3 3 4 5 5 6 5 4 5 5 3 2 1 3 3 3 3 2 2 2 5 6 5 5 6 1 7 7 2 5 8 12 15 17 17 16 14 13 14 19 26
16 16 16 15 15 14 13 14 14 15 17 15 10 9 9 7 5 4 5 6 3 2 4 5 3 4 4 3 2 2 2 1 2 2 2 3 1 1 1 2 1 2 1 3 4 2 2 2 2 2 3 4 3 3 3 2 1 1 1 2 2 3 2 2 3 2 2 6 5 7 9 4 5 5 3 7 10 12 12 13 17 14 10 12 16 21 29
16 16 16 16 15 15 14 14 13 14 16 14 10 9 9 7 5 3 3 8 9 4 2 2 4 5 3 2 2 1 1 1 2 2 3 3 2 1 2 3 2 1 2 3 3 3 2 3 4 4 3 2 2 2 3 3 3 2 2 1 2 3 2 2 3 1 2 6 6 6 8 4 3 4 4 9 12 14 14 14 13 7 11 21 23 24 31
16 15 16 16 15 15 14 14 13 13 14 14 11 8 8 7 6 4 4 10 10 4 1 4 7 7 3 2 2 1 2 1 1 2 2 2 2 2 3 3 4 1 3 2 3 2 2 3 3 4 4 2 2 2 2 3 3 4 4 3 2 2 1 1 3 4 3 5 5 5 6 3 3 3 8 13 16 17 16 12 7 6 20 30 29 30 35
14 14 15 15 15 15 14 13 13 12 12 13 11 8 8 8 7 6 4 6 8 6 5 9 9 6 3 1 1 1 2 2 2 2 1 2 2 2 3 4 3 2 2 2 3 3 3 3 3 5 4 0 1 4 3 2 2 2 3 4 3 2 1 2 3 4 4 4 5 4 4 1 3 6 13 19 21 19 14 8 5 13 27 33 32 33 36
13 13 13 14 14 14 13 12 11 10 11 12 11 8 8 8 6 5 5 6 8 7 8 9 8 4 2 1 1 1 0 2 2 2 2 1 2 1 4 3 2 3 3 2 2 3 4 3 2 4 3 1 0 3 2 2 3 2 1 3 3 1 1 2 2 4 5 5 5 5 3 1 2 8 15 20 19 13 7 6 11 22 31 33 33 33 34
12 12 13 14 13 13 13 11 11 10 10 10 10 9 9 8 6 5 3 4 8 10 10 9 7 4 4 4 4 3 2 3 2 3 3 1 1 7 6 3 3 2 4 4 2 2 3 2 1 2 3 1 0 2 3 2 2 1 2 3 2 1 1 3 3 4 5 4 5 7 3 3 4 13 16 15 10 6 6 13 22 28 31 32 32 32 32
12 12 12 13 12 11 11 10 10 10 8 10 10 9 8 8 7 6 5 4 12 19 14 9 9 8 8 7 6 4 3 3 3 3 3 2 6 10 6 2 1 1 3 3 2 1 2 3 1 0 3 3 1 1 3 1 1 1 1 1 1 0 2 3 2 2 4 4 4 5 3 1 10 16 12 7 6 8 14 22 27 28 29 31 30 30 30
11 12 12 12 11 11 11 10 11 10 9 12 12 8 7 8 7 9 9 5 10 18 15 11 11 10 8 8 7 5 4 3 3 3 3 5 6 6 4 2 3 3 1 2 2 1 1 2 1 1 3 2 0 1 3 2 2 1 1 1 2 2 1 3 2 1 1 3 2 3 7 11 15 13 9 10 13 15 18 22 25 25 26 28 27 28 29
12 12 12 12 12 12 11 11 12 11 11 14 13 8 7 10 10 11 10 4 9 19 18 14 13 11 8 8 7 5 5 5 5 5 5 6 5 4 4 4 3 3 2 2 3 2 1 1 1 2 3 3 2 1 1 3 3 1 2 3 3 4 2 4 2 2 3 6 8 10 15 18 15 13 15 18 19 18 18 21 23 24 24 25 26 28 30
11 12 12 12 12 12 12 12 12 11 12 14 13 9 10 12 12 12 9 7 16 24 21 15 12 9 8 8 7 5 6 5 5 7 8 6 4 4 4 4 3 4 3 2 3 4 3 2 2 3 3 2 2 2 2 3 3 1 3 4 3 3 2 2 2 4 7 10 13 16 17 15 14 16 17 17 16 16 18 21 22 23 24 25 26 28 31
11 11 12 12 12 12 12 11 11 11 11 13 13 12 13 14 13 11 8 8 16 19 15 10 8 7 7 7 7 6 5 5 6 8 9 8 5 3 4 5 5 4 3 4 5 4 3 2 1 2 3 1 0 3 4 4 2 1 2 3 3 4 4 3 4 6 6 6 9 12 13 14 17 18 16 14 15 17 19 21 23 25 27 27 27 28 30
11 11 12 12 12 12 11 11 11 10 12 14 14 14 14 14 13 11 8 7 10 11 9 6 6 6 7 6 6 6 6 6 7 8 9 9 7 5 6 7 7 5 6 8 6 4 4 3 1 3 3 1 1 2 3 2 1 1 2 3 2 4 4 3 5 6 7 10 13 14 15 16 17 15 13 15 19 21 22 23 24 25 28 29 29 30 31
11 12 12 12 12 11 11 11 10 11 12 14 14 13 13 13 14 12 9 7 7 9 8 5 4 6 6 5 6 6 6 7 8 9 9 9 9 8 7 8 8 7 7 7 5 3 4 4 2 3 3 1 1 2 2 2 2 1 3 2 2 5 3 3 5 6 9 11 13 14 14 13 11 11 15 19 21 22 24 25 25 27 29 30 30 32 33
12 12 12 12 12 11 11 11 11 11 12 12 12 13 13 13 14 12 10 7 5 4 5 5 5 6 6 6 6 6 7 8 9 10 10 10 10 9 8 7 7 6 6 5 4 3 3 3 3 2 1 1 1 1 2 3 2 2 4 2 5 4 2 3 4 6 6 8 12 12 10 10 12 16 21 23 22 23 24 25 26 27 28 28 30 32 34
14 13 12 12 12 11 11 10 9 9 9 9 9 11 11 12 13 12 11 10 7 4 8 11 9 6 5 5 6 6 8 9 10 11 11 11 10 10 8 7 6 5 4 4 3 3 3 3 2 1 1 0 1 1 1 1 2 4 5 4 7 5 4 2 4 7 9 12 15 13 10 14 19 23 25 25 25 24 24 24 26 27 27 27 28 31 33
13 13 12 11 11 10 9 9 8 8 7 6 6 7 9 13 14 13 12 12 10 7 13 15 9 3 3 4 6 8 10 11 12 11 12 13 12 10 8 7 6 5 3 3 4 4 3 2 1 1 1 1 1 1 1 1 3 4 1 5 7 5 4 5 8 11 14 16 16 14 14 19 24 26 27 27 24 22 23 25 27 26 26 26 27 30 32
12 11 10 10 9 9 8 7 6 8 8 6 4 5 7 11 13 12 12 12 10 7 9 9 5 2 3 3 5 8 12 15 13 12 14 15 12 10 9 7 6 5 4 4 4 3 3 1 0 1 2 2 1 2 2 2 3 2 3 6 4 4 6 8 10 12 15 18 19 18 19 24 27 28 26 23 21 21 24 27 26 26 28 29 29 31 32
12 11 10 10 8 8 7 6 6 8 8 6 5 4 3 6 9 11 10 10 8 7 6 8 6 4 2 2 4 6 12 16 12 10 14 15 11 9 9 7 6 5 4 3 3 2 2 1 1 1 2 3 2 3 2 2 4 2 3 4 3 5 8 11 13 14 18 22 22 22 22 24 25 24 22 22 24 25 26 27 27 28 30 30 29 30 31
12 11 11 10 9 9 9 8 9 9 7 6 7 8 6 6 8 9 8 8 8 6 4 6 5 2 1 3 4 5 12 16 12 11 14 13 9 8 9 7 5 4 3 2 2 1 1 1 1 1 1 2 2 2 2 4 5 2 2 1 4 8 11 14 16 19 22 23 21 20 21 22 22 22 24 28 29 28 27 28 28 28 29 30 31 33 33
11 10 10 9 9 10 9 9 9 8 7 7 9 10 9 8 8 8 7 6 7 7 5 4 3 1 1 3 3 6 13 15 11 11 13 10 8 9 8 6 4 3 3 3 1 1 2 2 1 1 1 1 1 1 3 4 3 2 2 4 8 11 15 18 20 22 23 21 17 16 20 24 26 27 29 30 30 28 27 27 28 29 30 32 32 32 30
10 9 9 8 8 8 8 8 7 6 7 7 7 8 9 8 8 10 8 5 5 8 8 6 3 0 2 3 2 5 14 15 10 11 11 8 8 9 6 4 3 1 2 3 2 1 2 2 2 2 1 1 0 2 3 2 3 4 6 8 10 13 16 19 19 19 19 18 18 20 24 28 30 30 30 30 30 28 27 27 28 29 30 30 30 29 30
9 9 8 8 7 7 7 7 6 5 6 6 6 8 9 7 8 10 10 7 5 5 7 8 5 2 3 2 1 6 16 15 10 11 10 7 9 10 6 2 2 1 2 4 2 1 1 2 3 3 1 1 1 3 2 3 5 6 9 11 11 13 15 16 18 18 18 19 23 27 29 30 29 30 30 29 28 26 26 27 27 27 29 33 34 35 39
9 9 8 8 7 7 6 6 5 4 5 6 6 7 7 6 7 8 9 10 10 8 6 5 5 3 3 2 2 10 17 13 10 12 9 6 8 9 6 2 1 2 4 4 1 1 2 2 3 2 0 0 1 1 3 5 7 9 12 13 14 16 17 18 20 22 23 25 28 29 28 26 25 26 26 26 25 25 26 28 29 31 34 38 40 41 43
10 9 9 8 7 6 5 5 5 4 4 5 5 4 5 5 5 5 6 9 13 14 11 7 4 3 3 2 4 12 15 10 8 10 7 6 7 7 4 3 2 3 4 1 1 3 4 3 3 2 2 1 4 5 5 7 9 11 15 17 18 21 22 23 24 24 25 27 29 28 26 26 27 28 29 30 31 33 32 32 33 35 37 40 43 44 44
10 10 8 7 7 5 4 5 6 5 4 5 4 3 4 4 3 3 6 8 9 12 13 9 5 3 4 2 6 12 11 8 7 6 5 6 7 5 3 3 3 3 3 1 1 5 5 2 0 2 3 3 6 8 8 9 11 13 17 19 21 24 25 26 26 24 22 24 26 26 27 31 35 37 37 38 40 41 39 37 39 40 40 43 46 46 46
11 10 8 7 6 5 4 5 6 5 4 4 3 1 3 5 3 3 6 7 5 8 11 8 4 5 5 3 5 10 10 7 6 3 4 6 6 3 3 3 3 4 3 1 2 6 4 1 1 1 2 2 4 6 8 11 13 15 17 20 23 25 26 28 28 25 23 24 26 28 30 31 33 36 38 40 41 42 41 41 42 43 43 44 46 46 47
10 10 8 6 6 5 5 6 7 5 3 3 2 1 3 6 5 4 4 4 3 5 7 6 4 6 7 4 4 7 10 8 4 2 3 4 4 3 3 2 3 4 3 1 3 6 3 1 1 2 1 2 3 7 12 16 16 15 16 20 23 25 26 28 29 28 27 27 29 31 32 32 33 35 37 38 39 40 41 41 42 43 43 44 45 45 47
10 9 8 6 6 5 5 6 6 4 1 2 3 3 3 4 5 4 3 2 1 3 7 7 5 5 7 7 5 6 8 8 5 2 2 3 4 4 3 2 3 3 2 1 4 5 2 2 2 1 2 4 7 11 15 17 16 15 17 19 23 25 27 28 29 29 28 29 30 31 32 32 33 34 36 37 37 38 40 41 42 42 43 43 44 45 47
9 9 8 6 5 5 5 4 5 4 2 1 2 3 2 2 3 3 4 2 1 3 6 7 6 6 9 9 7 6 7 7 5 3 2 2 4 4 2 1 2 1 1 3 5 3 1 2 2 1 4 8 12 16 18 18 16 17 19 22 25 27 28 29 29 29 28 28 29 31 32 32 33 34 34 34 35 37 39 40 41 41 42 44 45 46 47
9 10 8 6 5 5 4 3 4 4 2 2 2 2 2 2 1 1 2 2 1 2 5 7 8 8 9 9 8 7 5 5 4 2 1 3 4 3 1 1 1 1 2 4 3 1 2 2 2 3 9 15 17 19 20 20 19 19 21 24 26 28 30 31 31 30 29 28 29 31 32 33 34 35 34 34 34 36 38 40 40 41 43 45 46 47 47
9 9 7 4 4 4 3 3 4 4 2 2 2 1 1 2 1 1 1 2 2 3 5 8 9 8 7 8 8 5 3 3 4 2 2 3 3 1 0 1 1 2 3 3 1 2 2 2 2 5 13 18 18 18 19 21 22 21 23 26 28 30 32 32 31 30 30 29 29 31 32 34 35 36 36 36 36 37 38 40 41 43 45 47 48 49 48
8 8 6 3 3 5 3 1 2 3 2 1 1 1 1 2 1 1 1 2 2 4 7 9 10 8 8 8 7 3 2 4 4 2 2 3 2 0 0 1 2 2 2 1 1 2 2 1 4 9 15 19 19 20 22 24 23 21 23 28 31 32 33 32 31 30 30 30 30 33 34 35 36 37 37 37 37 37 38 40 42 44 45 46 48 50 50
7 6 4 1 2 4 3 1 1 2 2 1 1 2 2 2 1 1 1 2 3 5 7 10 10 9 7 6 5 2 2 3 2 1 2 2 1 0 2 2 2 1 1 1 2 2 2 4 9 14 18 20 22 22 24 24 22 20 23 28 31 32 32 31 30 29 29 29 31 33 35 36 37 37 37 37 38 38 39 41 42 45 46 46 47 50 51
5 5 4 1 1 2 2 1 1 2 1 1 1 2 3 2 2 2 2 3 4 6 8 10 11 8 5 4 3 2 3 3 2 1 2 1 2 1 2 1 1 1 1 2 3 2 3 7 13 17 21 22 22 22 22 22 20 20 24 28 30 31 31 30 29 28 28 28 30 32 34 37 37 36 36 38 39 40 41 42 43 45 45 44 46 49 50
4 4 3 1 0 1 2 2 2 3 2 1 1 2 2 1 1 2 3 4 5 6 8 9 9 6 4 3 2 1 2 3 1 0 1 1 1 1 2 1 2 1 2 2 3 4 6 11 17 20 22 21 21 21 21 20 19 20 25 29 30 30 30 29 29 28 27 28 29 31 34 36 36 36 37 40 41 42 42 43 43 43 43 43 46 49 48
3 3 3 3 2 2 3 3 3 4 4 3 2 2 2 1 1 3 4 5 5 6 8 8 6 3 2 3 2 0 0 2 1 0 1 1 1 0 0 1 3 2 1 2 3 6 10 14 18 20 21 21 20 20 20 18 17 21 25 28 29 29 29 29 28 27 27 27 29 31 33 34 35 36 38 40 42 44 44 43 42 41 42 44 46 46 43
4 4 5 4 3 4 5 4 2 3 6 7 5 3 2 1 2 4 5 5 5 6 6 6 4 2 2 2 1 0 0 1 1 1 1 0 1 1 1 3 3 2 1 3 6 11 15 18 19 20 21 21 20 19 18 17 17 22 26 28 28 29 28 28 27 26 26 27 29 30 32 34 34 36 37 39 41 44 45 44 43 43 44 46 46 44 41
4 5 6 5 3 2 4 4 2 2 4 6 6 4 2 1 2 4 5 4 4 4 4 3 2 2 1 1 1 1 1 0 0 1 2 1 2 2 2 3 3 3 5 9 14 16 18 18 19 19 21 21 19 18 17 18 20 24 26 27 27 27 27 27 26 26 27 28 29 30 32 33 34 35 36 38 41 44 46 47 47 47 47 47 45 42 40
4 4 5 6 4 2 2 3 3 2 3 4 5 4 3 2 3 4 4 4 3 2 2 2 1 1 1 1 1 1 1 1 1 1 2 2 4 4 4 4 6 8 12 16 19 18 17 17 18 19 19 20 20 20 20 21 23 25 25 25 26 26 26 25 26 27 28 29 30 31 32 33 34 36 38 40 42 44 46 47 48 47 46 45 44 41 40
Wind_Direction
122 123 121 119 114 105 98 95 102 107 92 83 90 90 79 75 71 64 82 97 101 95 80 44 46 66 66 69 69 65 64 75 97 89 29 15 289 283 78 356 4 38 8 329 346 344 296 295 341 353 25 50 61 353 342 333 292 284 286 81 61 304 272 297 302 305 99 118 119 109 114 112 102 100 99 88 72 314 285 289 309 306 292 300 305 289 285
120 118 115 110 103 98 94 92 96 101 100 95 92 91 85 77 64 52 65 135 101 69 72 95 91 82 103 104 79 63 66 50 56 80 22 20 319 306 36 63 357 48 330 287 304 336 293 240 149 3 345 98 123 308 330 333 333 345 348 348 353 338 314 332 329 330 347 20 78 171 219 269 333 113 115 106 121 202 260 258 273 285 294 310 306 289 286
111 110 109 105 100 96 95 99 103 104 102 95 87 87 85 78 62 49 47 73 93 76 87 115 119 123 119 101 74 63 82 52 45 70 46 36 15 314 45 96 289 289 249 241 225 248 260 256 184 167 158 141 169 277 206 157 336 355 62 320 327 315 315 348 355 341 330 323 317 314 312 310 314 120 133 136 108 102 282 290 285 288 306 309 288 280 295
109 110 108 102 97 93 95 107 114 116 117 102 79 82 74 70 62 44 48 65 77 82 89 99 116 132 134 110 82 347 111 81 53 66 60 47 28 322 17 187 248 238 247 252 242 221 219 254 289 231 218 145 152 251 221 173 310 344 31 345 319 269 274 1 30 312 291 293 296 302 309 304 297 301 132 136 121 108 279 294 292 297 308 298 277 289 302
102 103 100 97 95 94 98 101 101 108 109 95 88 89 82 71 53 25 51 66 71 80 79 69 88 123 149 107 96 52 104 110 84 66 50 17 349 275 205 319 282 312 319 285 270 256 223 215 282 292 289 329 165 241 241 277 318 348 3 5 358 269 259 101 38 283 269 276 285 290 295 294 294 304 313 146 144 169 223 262 284 301 307 295 296 307 307
93 93 92 94 94 94 96 94 97 104 94 94 104 81 68 83 87 84 109 85 64 78 71 49 66 77 54 87 100 63 106 114 306 85 65 317 311 261 213 94 35 6 335 306 304 318 282 214 190 253 278 282 225 205 206 240 332 42 20 34 31 286 264 93 352 283 279 280 279 279 285 290 294 300 299 267 175 197 250 267 281 295 292 288 300 308 306
91 89 88 88 85 85 86 81 83 90 85 94 110 88 88 109 110 89 86 89 81 88 94 94 92 70 53 97 84 12 137 124 51 70 249 225 144 274 281 39 45 349 316 312 324 334 317 276 260 230 247 266 242 225 208 192 167 295 266 44 38 303 279 81 308 283 286 279 268 273 286 290 292 289 279 248 217 255 278 282 287 287 278 281 296 303 302
88 86 84 82 79 78 79 77 78 81 86 92 97 100 108 120 124 112 101 90 76 76 88 99 107 77 37 89 73 353 296 117 86 121 268 277 108 307 325 359 14 321 311 309 313 324 312 298 300 220 186 284 256 249 338 74 130 177 2 29 14 346 4 90 295 289 290 275 272 290 297 300 294 257 201 225 274 286 290 295 301 297 289 293 302 302 299
86 85 85 83 81 79 77 78 79 79 85 92 94 102 109 116 127 124 112 89 33 43 62 329 318 94 27 43 108 273 35 72 78 136 191 333 13 11 352 340 311 233 279 288 312 332 323 312 315 225 211 310 357 15 5 7 313 158 76 12 337 333 305 159 321 304 304 343 327 317 325 0 255 219 207 250 284 301 307 304 305 305 303 305 307 301 298
83 83 83 83 82 82 79 77 77 77 82 88 96 108 114 118 126 125 113 95 17 17 21 299 338 77 29 52 100 112 86 92 320 213 159 165 313 352 350 325 302 254 246 288 318 316 304 292 299 239 202 348 46 54 48 37 12 48 97 2 332 325 302 319 355 307 300 333 329 320 326 128 190 197 191 238 303 318 315 309 307 307 306 304 303 303 311
82 81 81 81 81 82 82 80 77 76 77 78 87 104 113 119 126 124 111 102 56 3 353 2 57 66 64 93 114 110 112 139 279 328 48 112 271 283 276 310 307 288 272 326 319 317 325 335 95 102 108 98 86 83 86 72 50 46 89 218 212 243 291 331 11 302 299 321 323 309 279 262 23 111 125 95 338 326 316 310 308 308 306 303 303 308 317
81 80 79 79 79 79 81 83 82 79 76 70 71 84 99 112 119 121 115 109 80 8 47 57 50 86 122 127 113 116 138 170 212 274 327 352 312 308 275 284 309 323 349 334 29 84 80 77 85 92 98 103 103 99 91 78 62 51 34 249 255 306 328 330 313 273 291 313 327 325 318 352 114 127 112 21 337 323 314 307 305 310 313 313 314 318 322
77 77 76 76 75 75 77 80 81 79 75 67 58 64 82 97 102 104 110 106 87 25 87 92 94 116 130 126 95 104 122 134 206 243 278 296 322 337 303 248 294 312 304 251 130 106 91 114 113 108 115 120 123 120 98 79 65 44 317 244 263 328 350 314 295 307 303 316 337 323 311 10 136 143 78 359 334 330 324 313 309 316 321 323 323 321 322
73 71 70 69 69 70 70 71 73 73 72 66 54 54 66 77 86 98 112 107 89 89 112 108 113 131 136 125 107 118 139 206 268 262 255 259 294 358 280 247 278 305 295 158 172 232 274 218 192 188 166 163 198 192 149 128 99 53 324 275 308 333 341 324 329 3 324 314 306 284 285 275 143 134 37 3 340 333 327 311 306 310 327 338 330 322 322
75 71 69 66 64 64 61 62 64 64 67 64 50 50 61 67 73 71 115 126 123 123 116 115 145 150 145 138 139 143 220 227 251 260 240 240 257 268 252 262 294 307 133 156 212 256 274 268 280 279 238 227 272 231 162 165 173 185 244 308 23 16 2 338 313 295 316 306 301 304 306 309 119 104 19 360 340 324 315 303 296 314 352 344 334 327 326
75 72 69 66 64 61 55 55 54 55 63 61 49 49 60 65 75 79 115 131 127 127 185 154 150 148 133 140 172 249 296 286 291 274 210 171 192 235 257 284 289 254 149 189 247 251 257 260 272 289 282 275 302 281 206 185 177 179 211 222 118 80 51 262 264 279 309 303 300 310 306 310 79 47 350 349 341 326 314 297 283 353 353 340 332 328 326
72 68 65 62 62 59 54 51 50 50 58 58 48 46 55 60 72 76 101 126 110 104 145 152 150 149 131 123 164 244 297 321 330 299 266 108 153 218 284 302 282 196 159 256 254 235 261 262 252 280 282 185 316 292 262 248 253 199 202 210 175 126 331 285 280 292 297 290 292 288 268 284 42 5 346 346 338 324 311 287 295 343 339 332 328 326 323
67 63 61 59 59 58 54 50 47 45 52 56 49 44 52 57 63 71 97 114 100 107 145 149 145 153 154 132 117 125 259 325 332 286 286 108 136 255 302 289 232 177 191 270 284 258 270 267 258 291 297 120 10 299 293 296 287 257 241 258 234 189 277 274 277 299 301 288 282 287 271 210 29 357 350 344 332 317 304 295 315 327 327 325 325 322 319
63 58 57 58 57 56 53 50 49 47 51 57 51 45 52 54 52 69 90 105 108 124 147 148 137 136 126 111 101 95 64 20 7 319 309 125 7 328 309 230 187 188 205 227 270 277 277 275 257 300 285 239 189 293 295 309 287 268 296 286 264 230 287 264 251 296 309 284 282 300 279 165 10 347 346 347 337 317 304 309 315 319 320 321 322 320 319
59 54 55 56 56 57 54 50 52 51 53 58 50 40 50 53 54 75 75 95 120 124 129 134 126 118 112 103 89 76 59 34 18 356 346 332 326 329 319 205 159 300 218 232 280 294 286 296 325 225 276 285 25 304 282 263 196 283 328 284 257 289 310 298 291 318 310 286 287 304 274 27 359 346 340 347 338 309 306 310 312 315 317 319 319 318 320
53 50 52 54 54 56 54 51 52 50 54 57 41 20 41 55 58 72 64 66 123 123 122 127 120 110 103 94 81 74 69 46 33 27 355 324 325 333 328 322 343 342 298 304 303 240 252 307 326 271 272 279 161 268 292 286 244 158 109 261 250 176 212 309 330 104 336 306 290 285 293 317 338 338 321 317 315 308 310 311 310 312 316 318 317 316 319
48 46 50 52 52 53 50 49 51 50 54 54 34 11 48 63 58 65 61 66 120 116 117 123 114 101 95 89 75 66 67 54 36 26 4 337 329 324 308 309 307 292 302 312 289 279 280 271 288 286 278 272 251 250 300 292 280 112 131 224 219 169 198 304 310 190 244 267 265 278 294 304 315 318 313 312 310 310 314 312 308 311 315 316 316 316 318
47 48 51 51 52 52 49 48 50 50 55 55 40 32 58 65 62 64 65 89 108 108 111 116 108 94 87 81 71 62 57 42 20 14 7 351 331 315 316 319 297 280 279 270 284 311 315 292 308 309 293 290 289 276 241 239 251 157 178 215 200 168 199 261 275 269 269 261 266 284 296 301 307 310 308 306 305 311 315 312 310 312 314 316 317 316 316
48 48 50 52 53 52 49 49 49 50 55 54 45 43 54 62 65 65 63 88 106 107 106 102 94 88 83 78 72 61 44 25 11 7 2 357 348 321 314 320 313 297 278 275 283 291 282 277 311 293 284 310 323 287 277 259 242 154 188 223 192 166 182 214 249 276 288 279 287 305 313 310 309 309 307 308 311 315 317 313 311 313 316 317 317 315 316
49 50 50 51 51 49 47 48 47 48 52 51 45 44 51 58 61 57 58 88 112 115 106 91 87 92 92 83 72 58 39 22 11 1 356 356 349 322 307 312 308 289 279 288 289 264 253 265 245 255 273 240 179 273 295 295 271 161 213 266 221 159 168 233 256 263 273 279 293 312 318 309 302 300 306 316 318 317 317 314 313 314 316 316 317 318 320
50 52 52 52 51 47 46 46 44 45 48 47 43 42 46 54 56 53 56 76 99 107 102 99 111 110 98 81 67 53 34 19 11 2 357 355 349 336 321 314 310 300 293 294 287 250 254 269 261 265 277 245 222 287 310 320 316 242 250 280 108 126 160 242 270 276 273 279 302 322 323 310 298 297 309 317 318 315 314 314 315 315 315 316 317 320 322
47 48 48 50 47 42 41 40 39 41 43 42 43 43 46 53 54 50 52 61 69 90 103 118 138 129 102 77 63 48 29 18 11 3 358 355 352 347 335 321 316 313 305 298 281 257 255 256 252 270 294 277 242 271 305 319 316 264 262 203 138 152 250 271 286 287 280 298 322 329 319 303 303 308 312 314 314 313 312 313 314 314 315 315 317 318 320
43 42 43 43 39 36 37 34 31 34 35 37 44 46 48 55 56 50 53 57 52 85 126 131 137 132 100 67 46 33 22 14 8 3 1 356 350 347 342 333 323 309 297 296 287 271 268 270 280 350 53 347 275 223 240 289 261 260 264 205 179 205 276 289 284 288 290 303 315 317 301 291 296 303 308 311 312 311 310 310 311 313 314 315 315 316 317
40 38 37 35 32 30 29 27 28 31 29 34 49 49 45 49 50 46 48 52 50 81 121 127 129 125 104 69 35 26 19 8 0 359 358 354 349 348 347 340 329 316 300 291 289 286 287 299 329 325 225 239 292 284 236 228 252 271 259 166 179 214 267 268 273 284 290 297 306 307 295 289 292 300 305 307 308 308 308 309 310 311 312 314 315 316 317
39 38 37 32 30 28 21 19 28 33 32 36 49 50 44 45 44 41 44 50 49 65 109 123 125 133 131 80 29 24 15 3 354 350 352 351 346 344 344 339 330 323 310 294 291 292 291 286 311 278 240 199 227 288 286 261 272 274 138 152 186 251 276 273 272 276 284 294 300 299 292 292 297 303 303 302 305 308 308 309 310 311 314 315 315 317 320
37 39 35 30 32 29 21 23 33 34 37 45 50 59 60 43 37 36 40 49 49 51 87 106 108 128 140 14 0 8 4 359 351 346 348 347 343 341 342 336 330 328 317 298 284 284 294 302 304 284 236 204 235 281 291 269 279 275 149 165 244 288 289 284 281 278 283 292 297 297 293 294 300 304 302 303 309 311 309 310 311 314 315 314 312 315 320
35 35 30 27 27 22 19 27 30 27 32 47 58 68 69 48 38 36 40 51 50 45 80 99 91 118 245 329 335 344 355 357 355 351 350 348 346 348 344 336 332 343 347 322 286 282 339 334 283 260 221 213 251 296 275 264 278 294 117 167 291 305 305 300 296 293 292 294 295 296 296 298 301 302 302 306 312 313 310 309 311 312 314 314 314 318 321
33 30 26 24 22 18 21 29 29 25 30 46 60 67 62 49 41 37 44 63 57 48 68 92 77 79 305 325 320 338 353 356 355 353 353 353 354 354 347 336 333 344 357 359 347 311 336 330 284 279 249 222 267 296 267 268 294 18 30 326 310 312 314 312 307 302 300 297 292 286 289 296 300 302 302 307 311 311 308 309 311 313 315 316 316 317 317
26 23 20 17 16 16 19 24 27 29 31 42 58 60 53 52 50 43 51 71 58 51 61 66 69 87 317 315 257 339 352 353 351 350 351 350 353 354 347 329 329 336 357 0 350 296 338 351 326 297 263 190 323 278 268 307 21 10 337 322 315 314 316 315 311 307 302 297 290 287 292 298 302 303 305 309 311 310 310 311 313 314 314 315 314 316 319
16 15 11 6 7 11 12 16 23 26 22 31 48 47 43 50 54 50 53 57 54 63 60 48 52 56 333 326 192 343 347 349 350 350 345 337 345 354 355 328 314 326 338 336 322 292 4 353 321 303 266 151 262 259 288 6 5 339 328 326 324 321 317 314 312 308 301 296 296 299 304 306 303 301 304 306 307 308 310 312 313 315 316 319 321 325 327
9 7 5 1 359 1 5 9 11 12 14 24 36 39 39 45 53 57 56 50 54 71 74 55 64 52 343 316 286 335 342 346 349 349 349 343 344 353 0 348 316 327 333 332 338 14 353 333 314 300 220 159 312 328 9 356 335 326 328 328 326 324 320 315 313 310 305 303 304 306 308 306 300 296 299 302 305 310 313 316 318 321 322 323 326 328 329
3 359 358 357 353 352 358 2 2 5 12 14 20 31 37 37 48 60 54 46 52 60 65 75 88 40 348 289 302 330 340 346 348 352 1 358 344 346 356 350 337 333 331 349 71 358 329 314 312 293 246 292 329 324 320 314 312 320 329 330 328 328 324 320 318 313 308 308 309 309 310 309 307 307 309 311 314 318 320 321 322 323 323 324 326 328 329
357 353 351 351 348 343 345 350 351 352 357 359 10 31 30 25 45 51 34 36 47 48 48 62 79 24 353 307 323 341 348 343 336 348 10 357 345 353 14 7 3 350 322 235 34 343 319 282 323 297 269 302 322 315 308 307 310 321 330 333 332 330 327 325 322 315 307 306 309 310 312 312 312 315 316 316 317 320 320 321 322 322 322 324 326 328 329
350 348 346 344 343 341 342 345 345 343 350 2 14 25 12 16 31 28 19 27 41 35 35 48 55 18 2 327 328 349 355 343 325 340 8 358 355 8 7 355 6 354 312 239 22 354 330 230 88 311 282 313 333 335 338 331 323 325 334 338 337 334 331 327 324 317 307 303 305 307 309 309 310 312 314 315 316 317 318 318 320 321 322 324 327 329 330
346 345 340 335 336 338 337 341 343 342 349 14 33 49 30 33 37 21 4 19 48 36 25 21 9 3 5 355 333 342 351 352 342 328 342 346 350 349 331 329 357 346 298 258 13 1 338 284 312 326 10 17 341 333 338 335 329 329 334 337 339 339 335 330 327 322 316 312 311 312 312 311 311 312 314 314 314 314 315 317 319 321 323 326 329 331 332
343 343 337 330 333 337 336 340 351 358 6 25 33 38 34 28 27 22 17 29 49 14 3 359 355 354 355 353 337 322 333 344 345 317 307 330 345 339 316 308 344 337 257 287 357 352 321 279 287 293 12 357 330 325 330 329 326 328 332 336 341 343 340 335 331 327 321 318 317 318 318 317 317 317 317 316 314 313 314 316 319 323 326 329 331 333 335
341 341 337 329 330 338 336 339 355 5 13 32 38 40 30 13 17 25 33 46 39 351 351 354 351 338 336 340 336 316 316 332 344 338 298 319 342 346 324 296 328 316 251 336 345 330 256 276 288 330 9 351 334 330 331 327 322 326 334 342 347 347 344 340 336 332 328 324 322 323 324 324 324 323 321 319 316 314 315 319 324 327 331 332 333 335 337
336 338 337 329 331 341 342 343 359 10 31 51 42 22 3 16 28 11 14 34 36 346 344 347 344 339 336 339 338 326 314 329 350 357 312 321 339 347 327 298 307 280 301 330 334 289 275 299 294 338 350 343 336 335 335 331 325 327 335 343 348 347 345 342 340 337 335 332 329 328 328 327 327 328 327 324 321 319 322 326 329 331 333 334 335 336 338
334 337 334 318 321 341 338 336 359 17 46 59 40 27 8 21 30 253 322 10 3 333 335 339 340 339 336 335 335 329 322 341 356 357 332 334 346 358 320 337 335 308 303 306 279 257 278 269 267 323 338 339 337 338 337 333 330 330 334 341 345 346 344 343 340 337 337 336 334 333 332 330 331 331 330 329 328 328 329 332 333 334 336 336 336 337 339
334 340 340 321 331 354 357 339 7 29 53 61 48 94 57 17 11 301 312 335 329 324 330 335 337 336 333 334 337 336 329 341 349 355 341 338 338 189 265 316 325 319 305 280 271 283 284 303 333 339 341 340 336 334 335 335 332 331 334 339 343 344 344 342 339 338 338 338 336 335 335 334 335 334 333 332 332 333 334 336 336 337 338 338 338 338 338
340 348 358 353 342 2 13 18 8 29 56 85 75 75 70 59 64 63 314 316 320 324 327 331 334 335 335 339 343 339 338 344 352 4 350 333 275 281 331 311 296 316 314 271 280 292 313 347 347 343 340 337 334 332 335 336 335 333 336 340 342 343 341 339 338 338 338 338 336 336 336 336 336 336 334 333 333 334 336 338 339 339 340 340 338 337 337
338 344 357 1 326 0 27 52 28 19 35 84 89 85 86 82 65 20 335 323 328 331 330 331 332 331 332 338 338 337 2 11 12 353 349 316 249 299 344 312 255 296 294 280 300 326 338 340 341 338 337 337 337 335 336 337 337 337 339 341 340 340 339 338 337 337 336 335 335 336 336 337 337 337 335 334 334 336 338 340 341 341 341 340 338 337 338
344 346 0 34 62 18 22 18 357 349 342 337 56 73 73 66 30 343 323 317 323 330 332 332 330 323 324 338 337 322 5 11 6 342 8 330 271 310 352 318 286 268 221 241 302 330 333 333 335 336 337 339 340 338 338 340 340 339 339 339 339 338 338 338 338 336 334 335 337 338 338 337 337 337 336 335 336 337 338 340 342 342 340 339 339 340 342
7 14 38 71 76 44 15 354 347 355 357 350 343 355 1 345 304 303 306 310 321 329 331 331 327 310 312 336 340 218 28 11 6 342 337 311 267 174 45 291 293 291 217 214 300 321 326 330 334 335 337 340 340 339 338 339 338 337 338 338 337 337 338 339 338 337 337 339 341 340 338 338 338 338 338 337 337 337 338 341 343 343 341 341 343 344 345
36 47 54 55 44 19 4 351 348 20 22 18 11 4 357 331 292 296 297 299 314 330 334 335 336 330 321 333 350 100 98 27 2 283 278 248 145 152 227 247 260 284 314 321 324 327 331 336 339 339 338 339 340 340 339 335 333 334 336 337 337 338 339 340 340 340 343 345 343 339 339 340 340 340 340 338 337 336 338 341 344 344 344 345 347 348 346
44 56 53 42 25 8 9 7 357 1 11 13 14 13 9 346 313 305 294 284 303 333 341 341 352 2 350 332 337 331 317 332 155 254 264 234 167 169 234 259 273 313 326 324 325 329 335 341 343 341 338 339 341 343 339 332 330 332 335 337 338 340 341 342 343 345 346 346 343 341 341 342 342 340 339 339 338 339 340 343 345 347 347 348 350 350 347
47 53 49 36 25 6 2 8 1 344 337 344 349 350 342 323 315 308 289 268 269 296 293 286 332 7 345 313 331 332 309 295 271 261 253 216 193 197 226 274 303 315 319 320 323 329 337 341 340 337 337 338 341 340 336 331 331 334 337 339 340 341 342 344 346 348 348 346 345 344 344 343 342 341 341 342 343 344 344 345 346 347 349 350 351 351 349